| time (UTC) | temp F | wind direction | speed MPH | gust MPH | rain 1hr in | rain 24hr in | rain mn in | humidity % | barometer mb |
| 20260831041432 | 61 | 153 | 4.0 | 8.0 | 0.00 | 0.02 | 0.00 | 92 | 1008.7 |
| 20260831040505 | 61 | 158 | 4.0 | 8.0 | 0.00 | 0.02 | 0.00 | 92 | 1008.7 |
| 20260831040003 | 62 | 160 | 4.0 | 8.0 | 0.00 | 0.02 | 0.00 | 92 | 1008.6 |
| 20260831035503 | 62 | 158 | 5.0 | 9.0 | 0.00 | 0.02 | 0.00 | 92 | 1008.5 |
| 20260831035006 | 62 | 158 | 5.0 | 9.0 | 0.00 | 0.02 | 0.00 | 92 | 1008.5 |
| 20260831034504 | 61 | 155 | 4.0 | 9.0 | 0.00 | 0.02 | 0.00 | 92 | 1008.5 |
| 20260831034003 | 61 | 152 | 4.0 | 8.0 | 0.00 | 0.02 | 0.00 | 92 | 1008.6 |
| 20260831033503 | 61 | 154 | 4.0 | 8.0 | 0.00 | 0.02 | 0.00 | 92 | 1008.7 |
| 20260831033003 | 61 | 157 | 4.0 | 8.0 | 0.00 | 0.02 | 0.00 | 92 | 1008.7 |
| 20260831032505 | 61 | 161 | 4.0 | 8.0 | 0.00 | 0.02 | 0.00 | 92 | 1008.7 |
| 20260831032006 | 61 | 161 | 3.0 | 8.0 | 0.00 | 0.02 | 0.00 | 92 | 1008.7 |
| 20260831031503 | 61 | 156 | 3.0 | 7.0 | 0.00 | 0.02 | 0.00 | 92 | 1008.7 |
| 20260831031005 | 61 | 159 | 3.0 | 7.0 | 0.00 | 0.02 | 0.00 | 92 | 1008.7 |
| 20260831030503 | 61 | 158 | 3.0 | 7.0 | 0.00 | 0.02 | 0.00 | 92 | 1008.7 |
| 20260831030005 | 61 | 151 | 2.0 | 5.0 | 0.00 | 0.02 | 0.00 | 91 | 1008.7 |
| 20260831025503 | 61 | 149 | 2.0 | 4.0 | 0.00 | 0.02 | 0.00 | 91 | 1008.8 |
| 20260831025216 | 61 | 149 | 2.0 | 3.0 | 0.00 | 0.02 | 0.00 | 91 | 1008.8 |
| 20260831024503 | 61 | 149 | 1.0 | 5.0 | 0.00 | 0.02 | 0.00 | 91 | 1008.8 |
| 20260831024004 | 61 | 149 | 2.0 | 5.0 | 0.00 | 0.02 | 0.00 | 91 | 1008.8 |
| 20260831023717 | 61 | 149 | 2.0 | 5.0 | 0.00 | 0.02 | 0.00 | 91 | 1008.8 |
| 20260831023003 | 62 | 149 | 1.0 | 3.0 | 0.00 | 0.02 | 0.00 | 90 | 1008.8 |
| 20260831022503 | 62 | 149 | 1.0 | 3.0 | 0.00 | 0.02 | 0.00 | 90 | 1008.9 |
| 20260831022003 | 62 | 149 | 2.0 | 3.0 | 0.00 | 0.02 | 0.00 | 90 | 1008.8 |
| 20260831021503 | 62 | 149 | 2.0 | 5.0 | 0.00 | 0.02 | 0.00 | 90 | 1008.8 |
| 20260831021005 | 62 | 149 | 2.0 | 4.0 | 0.00 | 0.02 | 0.00 | 89 | 1008.8 |
| 20260831020504 | 62 | 149 | 1.0 | 5.0 | 0.00 | 0.02 | 0.00 | 89 | 1008.8 |
| 20260831020218 | 62 | 149 | 1.0 | 5.0 | 0.00 | 0.02 | 0.00 | 89 | 1008.8 |
| 20260831015503 | 63 | 149 | 1.0 | 5.0 | 0.00 | 0.02 | 0.00 | 89 | 1008.9 |
| 20260831015005 | 63 | 149 | 2.0 | 5.0 | 0.00 | 0.02 | 0.00 | 89 | 1008.9 |
| 20260831014503 | 63 | 163 | 2.0 | 5.0 | 0.00 | 0.02 | 0.00 | 89 | 1008.7 |
| 20260831014003 | 63 | 162 | 2.0 | 6.0 | 0.00 | 0.02 | 0.00 | 89 | 1009.2 |
| 20260831013505 | 63 | 156 | 3.0 | 7.0 | 0.00 | 0.02 | 0.00 | 89 | 1009.1 |
| 20260831013218 | 63 | 158 | 3.0 | 7.0 | 0.00 | 0.02 | 0.00 | 89 | 1009.0 |
| 20260831012503 | 63 | 158 | 3.0 | 9.0 | 0.00 | 0.02 | 0.00 | 89 | 1009.2 |
| 20260831012003 | 63 | 163 | 3.0 | 9.0 | 0.00 | 0.02 | 0.00 | 89 | 1009.2 |
| 20260831011503 | 63 | 163 | 3.0 | 7.0 | 0.00 | 0.02 | 0.00 | 89 | 1009.2 |
| 20260831011004 | 63 | 154 | 2.0 | 8.0 | 0.00 | 0.02 | 0.00 | 88 | 1009.2 |
| 20260831010503 | 63 | 163 | 3.0 | 8.0 | 0.00 | 0.02 | 0.00 | 88 | 1009.2 |
| 20260831010003 | 63 | 157 | 3.0 | 6.0 | 0.00 | 0.02 | 0.00 | 88 | 1009.1 |
| 20260831005504 | 63 | 135 | 2.0 | 5.0 | 0.00 | 0.02 | 0.00 | 88 | 1009.2 |
| 20260831005003 | 63 | 146 | 2.0 | 6.0 | 0.00 | 0.02 | 0.00 | 88 | 1009.2 |
| 20260831004503 | 63 | 159 | 3.0 | 6.0 | 0.00 | 0.02 | 0.00 | 88 | 1009.3 |
| 20260831004003 | 63 | 159 | 3.0 | 6.0 | 0.00 | 0.02 | 0.00 | 88 | 1009.4 |
| 20260831003505 | 63 | 152 | 3.0 | 7.0 | 0.00 | 0.02 | 0.00 | 88 | 1009.4 |
| 20260831003003 | 63 | 153 | 3.0 | 7.0 | 0.00 | 0.02 | 0.00 | 88 | 1009.5 |
| 20260831002505 | 63 | 164 | 3.0 | 6.0 | 0.00 | 0.02 | 0.00 | 88 | 1009.5 |
| 20260831002217 | 63 | 166 | 3.0 | 6.0 | 0.00 | 0.02 | 0.00 | 88 | 1009.7 |
| 20260831001505 | 63 | 165 | 2.0 | 6.0 | 0.00 | 0.02 | 0.00 | 88 | 1009.7 |
| 20260831001003 | 63 | 168 | 2.0 | 5.0 | 0.00 | 0.02 | 0.00 | 88 | 1009.7 |
| 20260831000503 | 63 | 157 | 2.0 | 5.0 | 0.00 | 0.02 | 0.00 | 88 | 1009.6 |
| 20260831000003 | 63 | 144 | 2.0 | 5.0 | 0.00 | 0.02 | 0.00 | 88 | 1009.6 |
| 20260830235503 | 63 | 142 | 2.0 | 4.0 | 0.00 | 0.02 | 0.00 | 88 | 1009.6 |
| 20260830235003 | 63 | 146 | 2.0 | 3.0 | 0.00 | 0.02 | 0.00 | 87 | 1009.5 |
| 20260830234503 | 63 | 146 | 2.0 | 4.0 | 0.00 | 0.02 | 0.00 | 87 | 1009.7 |
| 20260830234006 | 63 | 146 | 2.0 | 4.0 | 0.00 | 0.02 | 0.00 | 87 | 1009.7 |
| 20260830233503 | 63 | 145 | 2.0 | 5.0 | 0.00 | 0.02 | 0.00 | 86 | 1009.6 |
| 20260830233003 | 63 | 140 | 2.0 | 5.0 | 0.00 | 0.02 | 0.00 | 86 | 1009.7 |
| 20260830232506 | 63 | 138 | 2.0 | 7.0 | 0.00 | 0.02 | 0.00 | 86 | 1009.7 |
| 20260830232008 | 63 | 140 | 2.0 | 7.0 | 0.00 | 0.02 | 0.00 | 86 | 1009.8 |
| 20260830231504 | 63 | 139 | 0.0 | 5.0 | 0.00 | 0.02 | 0.00 | 87 | 1009.7 |
| 20260830231003 | 63 | 0 | 0.0 | 0.0 | 0.00 | 0.02 | 0.00 | 87 | 1009.7 |
| 20260830230718 | 64 | 0 | 0.0 | 0.0 | 0.00 | 0.02 | 0.00 | 87 | 1009.7 |
| 20260830230005 | 64 | 155 | 1.0 | 3.0 | 0.00 | 0.02 | 0.00 | 87 | 1010.0 |
| 20260830225503 | 64 | 156 | 2.0 | 4.0 | 0.00 | 0.02 | 0.00 | 87 | 1010.0 |
| 20260830225219 | 64 | 154 | 2.0 | 5.0 | 0.00 | 0.02 | 0.00 | 87 | 1010.0 |
| 20260830224503 | 64 | 140 | 1.0 | 5.0 | 0.00 | 0.02 | 0.00 | 88 | 1010.1 |
| 20260830224003 | 64 | 159 | 1.0 | 4.0 | 0.00 | 0.02 | 0.00 | 88 | 1010.2 |
| 20260830223505 | 64 | 169 | 2.0 | 6.0 | 0.00 | 0.02 | 0.00 | 88 | 1010.2 |
| 20260830223005 | 64 | 152 | 2.0 | 6.0 | 0.00 | 0.02 | 0.00 | 88 | 1010.3 |
| 20260830222503 | 64 | 141 | 2.0 | 6.0 | 0.00 | 0.02 | 0.00 | 89 | 1010.4 |
| 20260830222005 | 64 | 146 | 2.0 | 5.0 | 0.00 | 0.02 | 0.00 | 89 | 1010.4 |
| 20260830221503 | 63 | 153 | 3.0 | 7.0 | 0.00 | 0.02 | 0.00 | 90 | 1010.5 |
| 20260830221003 | 63 | 154 | 3.0 | 8.0 | 0.00 | 0.02 | 0.00 | 90 | 1010.5 |
| 20260830220503 | 63 | 153 | 2.0 | 8.0 | 0.00 | 0.02 | 0.00 | 91 | 1010.7 |
| 20260830220004 | 63 | 156 | 1.0 | 5.0 | 0.00 | 0.02 | 0.00 | 91 | 1010.7 |
| 20260830215503 | 63 | 156 | 1.0 | 3.0 | 0.00 | 0.02 | 0.02 | 91 | 1010.7 |
| 20260830215004 | 63 | 156 | 1.0 | 3.0 | 0.00 | 0.02 | 0.02 | 91 | 1010.7 |
| 20260830214503 | 63 | 156 | 0.0 | 3.0 | 0.00 | 0.02 | 0.02 | 91 | 1010.7 |
| 20260830214003 | 63 | 152 | 1.0 | 4.0 | 0.00 | 0.02 | 0.02 | 91 | 1010.7 |
| 20260830213503 | 63 | 152 | 1.0 | 4.0 | 0.00 | 0.02 | 0.02 | 91 | 1010.8 |
| 20260830213003 | 63 | 126 | 0.0 | 2.0 | 0.00 | 0.03 | 0.02 | 90 | 1010.8 |
| 20260830212503 | 63 | 126 | 1.0 | 3.0 | 0.00 | 0.03 | 0.02 | 90 | 1010.7 |
| 20260830212004 | 63 | 137 | 1.0 | 5.0 | 0.00 | 0.04 | 0.02 | 90 | 1010.7 |
| 20260830211503 | 63 | 144 | 2.0 | 5.0 | 0.00 | 0.04 | 0.02 | 90 | 1010.7 |
| 20260830211005 | 63 | 133 | 2.0 | 4.0 | 0.00 | 0.04 | 0.02 | 90 | 1010.7 |
| 20260830210505 | 63 | 116 | 1.0 | 4.0 | 0.00 | 0.04 | 0.02 | 90 | 1010.7 |
| 20260830210003 | 63 | 120 | 1.0 | 4.0 | 0.00 | 0.04 | 0.02 | 90 | 1010.8 |
| 20260830205503 | 63 | 124 | 1.0 | 4.0 | 0.00 | 0.04 | 0.02 | 90 | 1010.9 |
| 20260830205003 | 63 | 0 | 0.0 | 0.0 | 0.00 | 0.04 | 0.02 | 90 | 1011.1 |
| 20260830204503 | 63 | 0 | 0.0 | 0.0 | 0.00 | 0.04 | 0.02 | 90 | 1011.1 |
| 20260830204003 | 64 | 0 | 0.0 | 0.0 | 0.00 | 0.04 | 0.02 | 90 | 1011.1 |
| 20260830203719 | 64 | 0 | 0.0 | 0.0 | 0.00 | 0.04 | 0.02 | 90 | 1011.2 |
| 20260830203218 | 64 | 124 | 0.0 | 2.0 | 0.00 | 0.04 | 0.02 | 90 | 1011.1 |
| 20260830202503 | 64 | 143 | 1.0 | 3.0 | 0.00 | 0.04 | 0.02 | 90 | 1011.2 |
| 20260830202220 | 64 | 151 | 1.0 | 3.0 | 0.00 | 0.04 | 0.02 | 90 | 1011.1 |
| 20260830201503 | 64 | 157 | 0.0 | 2.0 | 0.00 | 0.04 | 0.02 | 90 | 1011.2 |
| 20260830201218 | 64 | 157 | 0.0 | 1.0 | 0.00 | 0.04 | 0.02 | 90 | 1011.2 |
| 20260830200503 | 64 | 157 | 0.0 | 1.0 | 0.00 | 0.04 | 0.02 | 90 | 1011.3 |
| 20260830200218 | 64 | 157 | 0.0 | 2.0 | 0.00 | 0.04 | 0.02 | 89 | 1011.3 |
| 20260830195503 | 64 | 157 | 1.0 | 3.0 | 0.00 | 0.04 | 0.02 | 89 | 1011.3 |
| 20260830195218 | 64 | 157 | 1.0 | 3.0 | 0.00 | 0.04 | 0.02 | 89 | 1011.3 |
| 20260830194503 | 64 | 0 | 0.0 | 0.0 | 0.00 | 0.04 | 0.02 | 89 | 1011.4 |
| 20260830194004 | 65 | 0 | 0.0 | 0.0 | 0.00 | 0.04 | 0.02 | 88 | 1011.4 |
| 20260830193503 | 65 | 0 | 0.0 | 0.0 | 0.00 | 0.04 | 0.02 | 88 | 1011.4 |
| 20260830193003 | 65 | 0 | 0.0 | 0.0 | 0.00 | 0.04 | 0.02 | 88 | 1011.4 |
| 20260830192504 | 66 | 0 | 0.0 | 0.0 | 0.01 | 0.04 | 0.02 | 87 | 1011.3 |
| 20260830192005 | 66 | 0 | 0.0 | 0.0 | 0.01 | 0.04 | 0.02 | 86 | 1011.5 |
| 20260830191719 | 66 | 0 | 0.0 | 0.0 | 0.01 | 0.04 | 0.02 | 86 | 1011.5 |
| 20260830191217 | 66 | 0 | 0.0 | 0.0 | 0.01 | 0.04 | 0.02 | 86 | 1011.5 |
| 20260830190503 | 66 | 0 | 0.0 | 0.0 | 0.01 | 0.04 | 0.02 | 86 | 1011.6 |
| 20260830190005 | 66 | 0 | 0.0 | 0.0 | 0.01 | 0.04 | 0.02 | 85 | 1011.5 |
| 20260830185503 | 67 | 0 | 0.0 | 0.0 | 0.01 | 0.05 | 0.02 | 84 | 1011.6 |
| 20260830185217 | 67 | 0 | 0.0 | 0.0 | 0.01 | 0.05 | 0.02 | 84 | 1011.6 |
| 20260830184505 | 67 | 0 | 0.0 | 0.0 | 0.01 | 0.05 | 0.02 | 85 | 1011.5 |
| 20260830184004 | 67 | 232 | 0.0 | 2.0 | 0.01 | 0.06 | 0.02 | 84 | 1011.5 |
| 20260830183503 | 67 | 232 | 0.0 | 2.0 | 0.01 | 0.06 | 0.02 | 84 | 1011.5 |
| 20260830183003 | 67 | 0 | 0.0 | 0.0 | 0.01 | 0.08 | 0.02 | 84 | 1011.6 |
| 20260830182503 | 67 | 0 | 0.0 | 0.0 | 0.00 | 0.09 | 0.01 | 84 | 1011.7 |
| 20260830182005 | 68 | 0 | 0.0 | 0.0 | 0.00 | 0.09 | 0.01 | 84 | 1011.7 |
| 20260830181505 | 68 | 0 | 0.0 | 0.0 | 0.00 | 0.09 | 0.01 | 83 | 1011.6 |
| 20260830181003 | 68 | 0 | 0.0 | 0.0 | 0.00 | 0.09 | 0.01 | 83 | 1011.6 |
| 20260830180504 | 68 | 192 | 0.0 | 4.0 | 0.00 | 0.09 | 0.01 | 83 | 1011.6 |
| 20260830180003 | 68 | 195 | 1.0 | 4.0 | 0.00 | 0.09 | 0.01 | 82 | 1011.6 |
| 20260830175503 | 68 | 206 | 1.0 | 7.0 | 0.00 | 0.09 | 0.01 | 82 | 1011.6 |
| 20260830175005 | 68 | 206 | 2.0 | 7.0 | 0.00 | 0.09 | 0.01 | 82 | 1011.5 |
| 20260830174503 | 68 | 201 | 2.0 | 7.0 | 0.00 | 0.09 | 0.01 | 82 | 1011.5 |
| 20260830174003 | 68 | 184 | 2.0 | 6.0 | 0.00 | 0.09 | 0.01 | 82 | 1011.5 |
| 20260830173718 | 68 | 168 | 2.0 | 6.0 | 0.00 | 0.09 | 0.01 | 82 | 1011.5 |
| 20260830173217 | 69 | 188 | 2.0 | 6.0 | 0.00 | 0.09 | 0.01 | 82 | 1011.4 |
| 20260830172503 | 69 | 209 | 1.0 | 4.0 | 0.00 | 0.09 | 0.01 | 83 | 1011.5 |
| 20260830172003 | 69 | 224 | 1.0 | 5.0 | 0.00 | 0.09 | 0.01 | 83 | 1011.5 |
| 20260830171503 | 69 | 224 | 2.0 | 5.0 | 0.00 | 0.09 | 0.01 | 83 | 1011.6 |
| 20260830171003 | 69 | 219 | 2.0 | 7.0 | 0.00 | 0.09 | 0.01 | 82 | 1011.7 |
| 20260830170503 | 70 | 225 | 1.0 | 7.0 | 0.00 | 0.09 | 0.01 | 83 | 1011.5 |
| 20260830170005 | 70 | 242 | 0.0 | 2.0 | 0.00 | 0.09 | 0.01 | 83 | 1011.6 |
| 20260830165505 | 70 | 242 | 0.0 | 2.0 | 0.00 | 0.09 | 0.01 | 82 | 1011.6 |
| 20260830165003 | 70 | 243 | 1.0 | 3.0 | 0.00 | 0.09 | 0.01 | 82 | 1011.6 |
| 20260830164503 | 70 | 236 | 1.0 | 4.0 | 0.00 | 0.09 | 0.01 | 81 | 1011.5 |
| 20260830164219 | 70 | 231 | 1.0 | 4.0 | 0.00 | 0.09 | 0.01 | 80 | 1011.7 |
| 20260830163505 | 71 | 222 | 0.0 | 4.0 | 0.00 | 0.09 | 0.01 | 79 | 1011.5 |
| 20260830163005 | 71 | 224 | 1.0 | 4.0 | 0.00 | 0.09 | 0.01 | 78 | 1011.4 |
| 20260830162505 | 71 | 215 | 1.0 | 4.0 | 0.00 | 0.09 | 0.01 | 78 | 1011.6 |
| 20260830162003 | 71 | 208 | 1.0 | 4.0 | 0.00 | 0.09 | 0.01 | 78 | 1011.6 |
| 20260830161505 | 71 | 239 | 2.0 | 7.0 | 0.00 | 0.09 | 0.01 | 78 | 1011.6 |
| 20260830161004 | 72 | 247 | 2.0 | 7.0 | 0.00 | 0.09 | 0.01 | 78 | 1011.7 |
| 20260830160503 | 72 | 257 | 2.0 | 6.0 | 0.00 | 0.09 | 0.01 | 79 | 1011.6 |
| 20260830160006 | 72 | 256 | 2.0 | 7.0 | 0.00 | 0.09 | 0.01 | 79 | 1011.6 |
| 20260830155505 | 71 | 256 | 3.0 | 7.0 | 0.00 | 0.09 | 0.01 | 80 | 1011.6 |
| 20260830155003 | 71 | 264 | 3.0 | 8.0 | 0.00 | 0.09 | 0.01 | 80 | 1011.6 |
| 20260830154503 | 71 | 254 | 3.0 | 8.0 | 0.00 | 0.09 | 0.01 | 80 | 1011.6 |
| 20260830154004 | 70 | 257 | 3.0 | 8.0 | 0.00 | 0.09 | 0.01 | 82 | 1011.7 |
| 20260830153503 | 70 | 273 | 4.0 | 12.0 | 0.00 | 0.09 | 0.01 | 83 | 1011.5 |
| 20260830153003 | 70 | 277 | 4.0 | 12.0 | 0.00 | 0.10 | 0.01 | 83 | 1011.6 |
| 20260830152503 | 70 | 276 | 4.0 | 10.0 | 0.00 | 0.10 | 0.01 | 84 | 1011.6 |
| 20260830152218 | 70 | 275 | 4.0 | 10.0 | 0.00 | 0.10 | 0.01 | 84 | 1011.5 |
| 20260830151505 | 69 | 264 | 4.0 | 9.0 | 0.00 | 0.10 | 0.01 | 85 | 1011.6 |
| 20260830151218 | 69 | 265 | 4.0 | 9.0 | 0.00 | 0.10 | 0.01 | 85 | 1011.7 |
| 20260830150505 | 69 | 277 | 4.0 | 9.0 | 0.00 | 0.10 | 0.01 | 86 | 1011.7 |
| 20260830150218 | 69 | 279 | 4.0 | 9.0 | 0.00 | 0.10 | 0.01 | 86 | 1011.7 |
| 20260830145717 | 69 | 277 | 3.0 | 9.0 | 0.00 | 0.10 | 0.01 | 88 | 1011.7 |
| 20260830145003 | 68 | 268 | 2.0 | 9.0 | 0.00 | 0.10 | 0.01 | 90 | 1011.6 |
| 20260830144505 | 68 | 274 | 3.0 | 8.0 | 0.00 | 0.10 | 0.01 | 90 | 1011.7 |
| 20260830144003 | 67 | 280 | 4.0 | 9.0 | 0.00 | 0.10 | 0.01 | 89 | 1011.7 |
| 20260830143503 | 67 | 281 | 4.0 | 10.0 | 0.00 | 0.10 | 0.01 | 90 | 1011.7 |
| 20260830143005 | 67 | 277 | 4.0 | 10.0 | 0.00 | 0.10 | 0.01 | 90 | 1011.7 |
| 20260830142717 | 67 | 276 | 4.0 | 8.0 | 0.00 | 0.10 | 0.01 | 90 | 1011.7 |
| 20260830142003 | 67 | 259 | 3.0 | 9.0 | 0.00 | 0.10 | 0.01 | 90 | 1011.7 |
| 20260830141503 | 67 | 269 | 3.0 | 8.0 | 0.00 | 0.10 | 0.01 | 90 | 1011.6 |
| 20260830141003 | 67 | 296 | 4.0 | 8.0 | 0.00 | 0.10 | 0.01 | 90 | 1011.6 |
| 20260830140505 | 67 | 298 | 4.0 | 10.0 | 0.00 | 0.10 | 0.01 | 89 | 1011.6 |
| 20260830140003 | 68 | 301 | 5.0 | 10.0 | 0.00 | 0.10 | 0.01 | 89 | 1011.6 |
| 20260830135505 | 68 | 306 | 5.0 | 12.0 | 0.00 | 0.10 | 0.01 | 88 | 1011.6 |
| 20260830135005 | 68 | 289 | 4.0 | 12.0 | 0.00 | 0.10 | 0.01 | 88 | 1011.6 |
| 20260830134503 | 68 | 264 | 4.0 | 9.0 | 0.00 | 0.10 | 0.01 | 89 | 1011.7 |
| 20260830134217 | 68 | 247 | 4.0 | 11.0 | 0.01 | 0.10 | 0.01 | 89 | 1011.6 |
| 20260830133718 | 68 | 244 | 4.0 | 11.0 | 0.01 | 0.10 | 0.01 | 89 | 1011.5 |
| 20260830133004 | 67 | 249 | 4.0 | 8.0 | 0.01 | 0.10 | 0.01 | 89 | 1011.5 |
| 20260830132716 | 67 | 247 | 3.0 | 8.0 | 0.01 | 0.10 | 0.01 | 90 | 1011.5 |
| 20260830132003 | 67 | 232 | 4.0 | 11.0 | 0.01 | 0.10 | 0.01 | 90 | 1011.5 |
| 20260830131505 | 67 | 234 | 4.0 | 11.0 | 0.01 | 0.10 | 0.01 | 90 | 1011.5 |
| 20260830131005 | 67 | 234 | 4.0 | 9.0 | 0.01 | 0.10 | 0.01 | 91 | 1011.5 |
| 20260830130503 | 67 | 238 | 5.0 | 10.0 | 0.01 | 0.10 | 0.01 | 91 | 1011.5 |
| 20260830130003 | 66 | 239 | 5.0 | 13.0 | 0.01 | 0.10 | 0.01 | 90 | 1011.5 |
| 20260830125504 | 66 | 248 | 7.0 | 13.0 | 0.01 | 0.10 | 0.01 | 90 | 1011.5 |
| 20260830125003 | 66 | 250 | 9.0 | 18.0 | 0.01 | 0.10 | 0.01 | 89 | 1011.5 |
| 20260830124503 | 67 | 244 | 9.0 | 18.0 | 0.01 | 0.10 | 0.01 | 89 | 1011.5 |
| 20260830124003 | 67 | 245 | 9.0 | 23.0 | 0.00 | 0.09 | 0.00 | 88 | 1011.3 |
| 20260830123505 | 67 | 245 | 9.0 | 23.0 | 0.00 | 0.09 | 0.00 | 87 | 1011.4 |
| 20260830123219 | 68 | 245 | 9.0 | 18.0 | 0.00 | 0.09 | 0.00 | 86 | 1011.4 |
| 20260830122505 | 68 | 220 | 7.0 | 15.0 | 0.00 | 0.09 | 0.00 | 86 | 1011.0 |
| 20260830122003 | 67 | 196 | 6.0 | 14.0 | 0.00 | 0.09 | 0.00 | 87 | 1010.8 |
| 20260830121505 | 67 | 198 | 6.0 | 14.0 | 0.00 | 0.09 | 0.00 | 88 | 1010.8 |
| 20260830121005 | 67 | 202 | 5.0 | 14.0 | 0.00 | 0.09 | 0.00 | 88 | 1010.8 |
| 20260830120504 | 67 | 191 | 5.0 | 14.0 | 0.00 | 0.09 | 0.00 | 88 | 1010.7 |
| 20260830120005 | 67 | 199 | 6.0 | 15.0 | 0.00 | 0.09 | 0.00 | 88 | 1010.8 |
| 20260830115505 | 67 | 208 | 6.0 | 15.0 | 0.00 | 0.09 | 0.00 | 88 | 1010.7 |
| 20260830115003 | 67 | 193 | 5.0 | 13.0 | 0.00 | 0.09 | 0.00 | 89 | 1010.7 |
| 20260830114503 | 67 | 182 | 5.0 | 17.0 | 0.00 | 0.09 | 0.00 | 89 | 1010.6 |
| 20260830114005 | 66 | 181 | 5.0 | 17.0 | 0.00 | 0.09 | 0.00 | 90 | 1010.6 |
| 20260830113503 | 66 | 183 | 5.0 | 13.0 | 0.00 | 0.09 | 0.00 | 91 | 1010.6 |
| 20260830113003 | 66 | 188 | 5.0 | 11.0 | 0.00 | 0.09 | 0.00 | 91 | 1010.6 |
| 20260830112720 | 66 | 192 | 5.0 | 9.0 | 0.00 | 0.09 | 0.00 | 91 | 1010.6 |
| 20260830112005 | 66 | 187 | 5.0 | 16.0 | 0.00 | 0.09 | 0.00 | 91 | 1010.5 |
| 20260830111504 | 66 | 188 | 4.0 | 9.0 | 0.00 | 0.09 | 0.00 | 91 | 1010.5 |
| 20260830111003 | 66 | 182 | 5.0 | 16.0 | 0.00 | 0.09 | 0.00 | 92 | 1010.4 |
| 20260830110719 | 66 | 181 | 5.0 | 16.0 | 0.00 | 0.09 | 0.00 | 91 | 1010.4 |
| 20260830110005 | 66 | 192 | 4.0 | 11.0 | 0.00 | 0.09 | 0.00 | 91 | 1010.5 |
| 20260830105506 | 66 | 201 | 5.0 | 15.0 | 0.00 | 0.09 | 0.00 | 90 | 1010.4 |
| 20260830105005 | 66 | 189 | 7.0 | 15.0 | 0.00 | 0.09 | 0.00 | 89 | 1010.4 |
| 20260830104505 | 67 | 189 | 7.0 | 15.0 | 0.00 | 0.09 | 0.00 | 87 | 1010.4 |
| 20260830104003 | 67 | 198 | 7.0 | 15.0 | 0.00 | 0.09 | 0.00 | 86 | 1010.3 |
| 20260830103503 | 68 | 192 | 7.0 | 15.0 | 0.00 | 0.09 | 0.00 | 86 | 1010.2 |
| 20260830103003 | 68 | 188 | 7.0 | 17.0 | 0.00 | 0.09 | 0.00 | 86 | 1010.3 |
| 20260830102717 | 68 | 191 | 7.0 | 17.0 | 0.00 | 0.09 | 0.00 | 86 | 1010.2 |
| 20260830102004 | 68 | 196 | 7.0 | 14.0 | 0.00 | 0.09 | 0.00 | 86 | 1010.0 |
| 20260830101503 | 67 | 192 | 7.0 | 14.0 | 0.00 | 0.09 | 0.00 | 87 | 1010.0 |
| 20260830101005 | 67 | 183 | 7.0 | 18.0 | 0.00 | 0.09 | 0.00 | 88 | 1009.9 |
| 20260830100717 | 67 | 181 | 6.0 | 18.0 | 0.00 | 0.09 | 0.00 | 88 | 1010.0 |
| 20260830100008 | 66 | 187 | 4.0 | 10.0 | 0.00 | 0.09 | 0.00 | 88 | 1009.9 |
| 20260830095505 | 66 | 184 | 5.0 | 13.0 | 0.00 | 0.09 | 0.00 | 89 | 1010.0 |
| 20260830095218 | 66 | 186 | 6.0 | 13.0 | 0.00 | 0.09 | 0.00 | 89 | 1009.9 |
| 20260830094503 | 66 | 185 | 5.0 | 15.0 | 0.00 | 0.09 | 0.00 | 90 | 1009.8 |
| 20260830094003 | 66 | 192 | 6.0 | 15.0 | 0.00 | 0.09 | 0.00 | 90 | 1009.9 |
| 20260830093503 | 65 | 189 | 6.0 | 14.0 | 0.00 | 0.09 | 0.00 | 91 | 1010.0 |
| 20260830093005 | 65 | 184 | 5.0 | 12.0 | 0.00 | 0.09 | 0.00 | 91 | 1009.9 |
| 20260830092503 | 65 | 186 | 5.0 | 10.0 | 0.00 | 0.09 | 0.00 | 91 | 1009.8 |
| 20260830092003 | 65 | 196 | 5.0 | 11.0 | 0.00 | 0.09 | 0.00 | 91 | 1009.9 |
| 20260830091504 | 65 | 198 | 5.0 | 11.0 | 0.00 | 0.09 | 0.00 | 91 | 1009.8 |
| 20260830091003 | 65 | 184 | 5.0 | 12.0 | 0.00 | 0.09 | 0.00 | 91 | 1009.8 |
| 20260830090721 | 65 | 190 | 5.0 | 13.0 | 0.00 | 0.09 | 0.00 | 91 | 1009.8 |
| 20260830090218 | 65 | 177 | 6.0 | 16.0 | 0.00 | 0.09 | 0.00 | 90 | 1009.7 |
| 20260830085717 | 65 | 170 | 6.0 | 16.0 | 0.00 | 0.09 | 0.00 | 89 | 1009.6 |
| 20260830085003 | 65 | 183 | 5.0 | 14.0 | 0.00 | 0.09 | 0.00 | 89 | 1009.5 |
| 20260830084716 | 65 | 195 | 5.0 | 16.0 | 0.00 | 0.09 | 0.00 | 89 | 1009.5 |
| 20260830084217 | 65 | 205 | 7.0 | 16.0 | 0.00 | 0.09 | 0.00 | 89 | 1009.5 |
| 20260830083503 | 65 | 204 | 6.0 | 14.0 | 0.00 | 0.09 | 0.00 | 89 | 1009.4 |
| 20260830083004 | 65 | 193 | 6.0 | 14.0 | 0.00 | 0.09 | 0.00 | 89 | 1009.3 |
| 20260830082503 | 65 | 194 | 6.0 | 14.0 | 0.00 | 0.09 | 0.00 | 89 | 1009.3 |
| 20260830082003 | 65 | 194 | 7.0 | 16.0 | 0.00 | 0.09 | 0.00 | 90 | 1009.2 |
| 20260830081716 | 65 | 196 | 7.0 | 16.0 | 0.00 | 0.09 | 0.00 | 90 | 1009.1 |
| 20260830081217 | 65 | 199 | 6.0 | 14.0 | 0.00 | 0.09 | 0.00 | 91 | 1009.1 |
| 20260830080505 | 64 | 198 | 4.0 | 10.0 | 0.00 | 0.09 | 0.00 | 91 | 1009.1 |
| 20260830080217 | 64 | 187 | 4.0 | 13.0 | 0.00 | 0.09 | 0.00 | 92 | 1008.9 |
| 20260830075503 | 64 | 196 | 5.0 | 15.0 | 0.00 | 0.09 | 0.00 | 92 | 1008.8 |
| 20260830075003 | 64 | 210 | 4.0 | 10.0 | 0.00 | 0.09 | 0.00 | 92 | 1008.8 |
| 20260830074503 | 64 | 200 | 4.0 | 11.0 | 0.00 | 0.09 | 0.00 | 93 | 1008.8 |
| 20260830074217 | 64 | 188 | 4.0 | 11.0 | 0.00 | 0.09 | 0.00 | 93 | 1008.9 |
| 20260830073503 | 64 | 188 | 4.0 | 9.0 | 0.00 | 0.09 | 0.00 | 92 | 1008.8 |
| 20260830073005 | 64 | 180 | 5.0 | 12.0 | 0.00 | 0.09 | 0.00 | 92 | 1008.6 |
| 20260830072718 | 64 | 182 | 5.0 | 12.0 | 0.00 | 0.09 | 0.00 | 92 | 1008.7 |
| 20260830072006 | 64 | 182 | 4.0 | 10.0 | 0.00 | 0.09 | 0.00 | 91 | 1008.5 |
| 20260830071718 | 64 | 189 | 5.0 | 13.0 | 0.00 | 0.09 | 0.00 | 91 | 1008.5 |
| 20260830071217 | 64 | 188 | 5.0 | 13.0 | 0.00 | 0.09 | 0.00 | 91 | 1008.3 |
| 20260830070506 | 64 | 194 | 5.0 | 12.0 | 0.00 | 0.09 | 0.00 | 91 | 1008.2 |
| 20260830070003 | 64 | 183 | 5.0 | 11.0 | 0.00 | 0.09 | 0.00 | 91 | 1008.2 |
| 20260830065503 | 64 | 197 | 5.0 | 16.0 | 0.00 | 0.09 | 0.00 | 91 | 1008.1 |
| 20260830065003 | 64 | 191 | 6.0 | 16.0 | 0.00 | 0.09 | 0.00 | 91 | 1008.0 |
| 20260830064503 | 64 | 195 | 6.0 | 13.0 | 0.00 | 0.09 | 0.00 | 91 | 1007.9 |
| 20260830064005 | 64 | 200 | 5.0 | 13.0 | 0.00 | 0.09 | 0.00 | 92 | 1007.8 |
| 20260830063503 | 64 | 194 | 4.0 | 12.0 | 0.00 | 0.09 | 0.00 | 92 | 1007.7 |
| 20260830063003 | 64 | 207 | 4.0 | 13.0 | 0.00 | 0.09 | 0.00 | 92 | 1007.7 |
| 20260830062505 | 64 | 199 | 5.0 | 13.0 | 0.00 | 0.09 | 0.00 | 92 | 1007.6 |
| 20260830062005 | 63 | 202 | 5.0 | 12.0 | 0.00 | 0.09 | 0.00 | 92 | 1007.6 |
| 20260830061503 | 63 | 188 | 5.0 | 11.0 | 0.00 | 0.09 | 0.00 | 92 | 1007.5 |
| 20260830061003 | 63 | 180 | 6.0 | 11.0 | 0.00 | 0.09 | 0.00 | 93 | 1007.4 |
| 20260830060720 | 63 | 184 | 5.0 | 11.0 | 0.00 | 0.09 | 0.00 | 93 | 1007.4 |
| 20260830060003 | 63 | 186 | 5.0 | 12.0 | 0.00 | 0.09 | 0.00 | 93 | 1007.3 |
| 20260830055505 | 63 | 183 | 5.0 | 12.0 | 0.00 | 0.09 | 0.00 | 93 | 1007.3 |
| 20260830055003 | 63 | 190 | 5.0 | 12.0 | 0.00 | 0.09 | 0.00 | 93 | 1007.3 |
| 20260830054503 | 63 | 187 | 5.0 | 13.0 | 0.00 | 0.09 | 0.00 | 93 | 1007.3 |
| 20260830054005 | 63 | 178 | 5.0 | 13.0 | 0.00 | 0.09 | 0.00 | 93 | 1007.2 |
| 20260830053503 | 63 | 179 | 6.0 | 16.0 | 0.00 | 0.09 | 0.00 | 92 | 1007.2 |
| 20260830053005 | 63 | 184 | 6.0 | 16.0 | 0.00 | 0.09 | 0.00 | 92 | 1007.1 |
| 20260830052504 | 63 | 181 | 5.0 | 15.0 | 0.00 | 0.09 | 0.00 | 92 | 1007.1 |
| 20260830052003 | 63 | 179 | 6.0 | 15.0 | 0.00 | 0.09 | 0.00 | 92 | 1007.1 |
| 20260830051504 | 63 | 185 | 6.0 | 17.0 | 0.00 | 0.09 | 0.00 | 92 | 1007.0 |
| 20260830051005 | 63 | 187 | 6.0 | 17.0 | 0.00 | 0.09 | 0.00 | 92 | 1007.0 |
| 20260830050505 | 63 | 184 | 6.0 | 12.0 | 0.00 | 0.09 | 0.00 | 92 | 1006.9 |
| 20260830050003 | 63 | 181 | 5.0 | 11.0 | 0.00 | 0.09 | 0.00 | 91 | 1006.9 |
| 20260830045505 | 64 | 182 | 6.0 | 11.0 | 0.00 | 0.09 | 0.00 | 91 | 1006.9 |
| 20260830045003 | 64 | 185 | 5.0 | 10.0 | 0.00 | 0.09 | 0.00 | 90 | 1006.8 |
| 20260830044717 | 64 | 187 | 6.0 | 15.0 | 0.00 | 0.09 | 0.00 | 90 | 1006.8 |
| 20260830044005 | 64 | 192 | 7.0 | 20.0 | 0.00 | 0.09 | 0.00 | 89 | 1006.7 |
| 20260830043504 | 64 | 199 | 7.0 | 20.0 | 0.00 | 0.09 | 0.00 | 88 | 1006.7 |
| 20260830043218 | 64 | 194 | 7.0 | 17.0 | 0.00 | 0.09 | 0.00 | 88 | 1006.7 |
| 20260830042504 | 64 | 187 | 8.0 | 17.0 | 0.00 | 0.09 | 0.00 | 88 | 1006.6 |
| 20260830042218 | 64 | 185 | 7.0 | 15.0 | 0.00 | 0.09 | 0.00 | 88 | 1006.6 |
| 20260830041717 | 65 | 192 | 7.0 | 17.0 | 0.00 | 0.09 | 0.00 | 87 | 1006.6 |